Vorticity
7 8 11 10 5 1 1 5 8 11 13 14 14 14 18 18 14 15 17 15 10 6 8 13 10 7 12 15 13 16 18 14 10 6 3 5 2 -3 8 24 17 1 7 25 26 16 13 14 15 17 12 13 27 32 22 22 32 36 25 8 5 3 -2 15 33 26 17 5 -0 22 21 -1 3 2 5 24 5 -10 18 32 22 13 11 18 16 22 35
5 6 11 11 7 4 2 3 7 10 13 16 16 14 16 19 18 15 14 15 13 7 5 10 9 6 7 6 7 12 14 11 8 8 5 0 4 6 3 10 18 14 11 18 24 20 15 12 6 9 22 25 27 30 27 34 40 32 22 10 4 -1 -12 2 31 29 19 7 -3 18 28 12 -5 -18 10 37 0 -12 16 12 9 17 8 7 9 9 17
5 5 9 12 9 6 4 4 5 9 13 15 16 15 13 17 20 19 17 17 15 8 5 9 10 9 7 6 11 14 12 12 8 7 10 5 -1 2 8 8 7 25 43 29 16 23 25 16 7 18 38 30 23 38 43 42 39 24 15 8 -1 -4 -11 3 30 27 18 12 -2 9 33 26 -6 -17 20 29 -7 5 15 -21 -1 26 -6 -14 5 8 16
4 5 8 12 10 6 6 5 4 8 12 14 17 15 12 14 14 16 21 22 19 12 6 7 9 10 10 9 12 11 5 8 11 9 10 10 3 -2 9 12 -1 14 41 28 14 23 20 9 7 22 42 35 33 54 53 40 33 15 6 6 3 1 -12 -9 17 22 18 16 0 1 27 33 8 -11 11 18 -3 17 20 -18 -6 6 -16 6 23 1 9
4 5 8 12 11 8 6 5 5 8 10 14 18 15 14 18 12 10 16 18 20 18 9 6 7 8 10 9 13 16 9 6 10 13 9 6 8 9 9 10 5 10 19 11 14 25 15 10 15 21 34 37 43 58 46 29 20 -2 -8 9 16 10 -12 -16 10 20 17 16 6 7 23 31 24 0 -0 19 18 18 19 -1 -10 -11 -4 28 23 -9 5
6 4 7 12 12 10 7 4 5 9 9 12 17 13 13 19 16 13 14 12 16 20 14 7 6 8 8 7 10 13 9 8 9 13 14 6 4 7 6 8 11 8 7 7 11 18 22 29 32 33 42 46 46 43 24 11 3 -11 -1 24 22 7 -6 -4 11 12 12 15 11 18 26 22 19 7 6 28 17 -9 3 13 -1 -3 16 24 4 -11 3
6 4 8 12 12 10 8 4 4 8 9 11 17 16 11 13 14 13 15 15 17 20 18 10 5 8 9 5 7 6 3 8 9 8 13 10 6 9 9 12 10 0 7 20 13 6 20 36 37 35 41 42 33 19 5 -2 -8 -5 20 28 6 -2 4 9 15 14 13 13 9 12 18 18 18 9 6 25 17 -8 8 26 3 -4 18 13 -13 -13 1
6 5 9 12 13 10 6 4 5 7 8 9 15 18 16 15 14 13 13 14 14 18 21 16 7 7 8 4 5 7 6 9 10 7 7 5 10 19 16 13 13 6 12 24 16 11 23 30 27 22 20 24 22 9 -1 -7 -13 1 22 12 -3 8 10 -1 7 18 11 2 3 8 13 17 20 13 4 20 38 26 21 28 6 -8 11 4 -20 -8 11
5 5 10 12 12 9 4 4 6 8 8 8 12 15 14 15 16 16 17 14 12 16 20 20 14 8 7 7 6 7 7 10 13 12 7 2 4 10 7 7 13 10 10 15 11 16 27 20 11 10 9 10 9 4 3 -1 -5 7 11 -1 5 22 9 -11 -2 10 7 9 15 14 16 17 15 14 5 13 38 26 -4 8 16 -3 -2 -7 -20 7 25
7 4 10 13 11 7 4 4 6 8 8 7 12 14 11 13 13 13 17 14 11 18 19 18 19 14 8 7 7 7 5 8 14 13 9 8 5 4 4 8 14 10 9 20 24 23 27 17 2 -0 1 4 7 2 4 10 9 6 1 1 13 16 4 2 8 0 -2 17 24 7 1 8 14 22 16 9 30 24 -12 -2 21 7 -1 -11 -23 8 29
9 6 9 13 12 6 4 5 5 8 9 7 11 15 11 13 14 12 16 15 9 15 20 17 18 18 14 8 6 8 5 6 12 12 9 12 10 11 12 11 16 13 5 16 28 24 22 16 8 4 -0 3 8 -1 -3 10 11 2 -1 5 11 6 1 10 17 9 3 13 16 1 -1 10 16 25 26 14 22 28 13 14 16 4 7 -3 -25 -6 21
9 7 9 12 12 7 3 5 6 7 9 7 10 13 10 12 16 14 16 18 12 11 15 16 17 20 19 10 6 8 5 5 11 10 10 13 10 13 16 10 13 15 5 11 23 22 21 17 12 13 10 2 -0 -1 6 14 9 1 -0 1 6 8 7 14 18 10 4 12 17 8 5 11 10 13 22 18 15 18 21 30 23 8 9 2 -20 -16 7
9 7 10 11 12 8 3 5 8 7 8 8 9 11 10 9 14 15 14 17 16 13 13 14 14 18 23 17 8 8 6 4 8 10 12 13 13 18 18 10 13 14 8 15 21 16 21 24 13 11 17 12 2 4 14 16 10 6 1 2 12 7 -2 12 20 3 -5 12 26 17 3 5 10 13 15 16 14 9 10 20 26 23 20 9 -9 -22 -20
9 7 10 11 11 10 4 4 8 8 8 8 8 10 10 8 10 14 15 17 15 13 14 16 12 11 20 24 16 9 7 5 4 9 11 7 11 24 23 11 13 12 7 18 23 12 14 24 19 12 15 13 4 3 11 13 13 11 2 4 13 0 -11 7 19 8 -1 2 11 15 13 16 22 18 11 11 11 10 10 13 17 26 31 21 8 -8 -29
9 7 9 12 12 11 6 3 6 8 7 8 7 9 9 8 8 11 15 18 16 11 12 19 18 11 13 23 23 13 8 7 3 5 10 5 4 20 28 18 12 12 10 13 18 16 15 19 20 18 15 11 7 10 14 13 12 11 8 10 11 2 -1 4 6 11 9 -1 6 25 26 19 20 18 13 11 10 12 16 14 10 18 29 24 18 18 5
9 7 8 11 12 12 7 2 4 7 7 7 8 9 7 6 8 10 12 17 18 11 8 13 18 16 12 16 23 19 12 9 6 4 7 7 3 12 25 21 11 11 12 6 8 17 18 12 10 10 12 13 13 15 15 13 15 13 9 10 9 7 10 6 4 15 13 -4 -0 14 14 10 16 21 17 8 8 15 15 12 10 12 19 20 18 23 26
9 7 7 9 11 13 9 2 0 3 6 7 7 9 8 4 6 10 11 15 18 14 10 11 14 15 15 14 19 22 17 10 9 8 6 5 5 9 18 19 15 14 11 9 16 15 3 2 10 10 8 9 12 17 16 11 14 15 9 6 6 8 11 10 9 12 7 -3 -7 -1 15 22 17 19 20 8 8 18 14 10 12 9 11 18 16 15 18
10 7 7 7 8 13 12 4 -1 -1 3 6 7 10 10 5 4 7 9 14 19 15 11 13 14 12 15 16 16 20 21 14 9 9 6 3 5 8 15 22 27 23 11 9 21 15 -0 7 19 10 4 8 13 17 16 8 8 13 11 7 7 9 10 11 14 12 5 3 1 6 28 30 10 13 24 13 10 17 11 9 14 12 13 17 15 17 20
10 8 8 5 5 10 12 8 4 1 2 6 7 9 11 7 3 5 7 11 18 17 11 11 14 12 12 16 16 17 23 20 12 7 5 6 6 7 14 22 24 21 12 8 15 14 6 15 21 7 2 10 13 12 11 9 11 12 12 10 11 16 16 11 13 13 4 5 9 10 17 17 9 18 24 11 9 14 9 9 14 14 16 19 18 20 16
9 8 9 5 3 7 10 9 7 5 4 5 7 8 11 10 5 3 6 10 16 19 14 9 12 13 11 15 17 17 21 22 16 10 7 6 6 6 11 17 17 16 13 11 12 10 7 18 27 14 4 8 10 7 8 12 14 11 11 14 13 16 18 7 1 6 8 15 19 6 0 16 26 24 18 10 8 10 10 15 17 13 13 17 18 19 16
6 9 9 6 3 4 8 10 8 6 6 5 7 9 10 10 8 3 3 8 14 20 17 9 10 12 11 14 16 17 20 21 18 14 10 7 8 7 8 14 15 14 12 11 11 9 9 17 18 8 7 13 12 6 4 8 12 9 8 11 9 10 12 2 -1 11 15 16 16 -2 -3 29 42 23 12 14 10 6 12 19 19 14 13 15 14 14 16
5 9 10 7 4 3 7 12 9 5 5 4 6 10 10 9 9 5 3 4 9 19 21 13 10 12 12 12 14 16 20 22 20 18 12 8 8 7 7 12 14 12 9 7 7 8 11 13 9 9 15 15 9 11 10 4 5 6 6 8 7 8 10 5 7 15 11 9 15 3 -1 27 37 16 8 14 10 6 9 12 15 15 14 16 18 18 17
4 9 10 8 7 3 6 14 11 3 3 6 7 9 11 11 8 6 5 4 4 15 25 19 10 9 11 11 11 14 18 21 23 22 15 9 9 8 7 9 12 13 10 6 4 6 9 12 12 14 15 5 4 18 17 3 5 9 5 6 9 7 9 10 11 12 9 14 24 12 -1 16 29 16 9 11 8 7 8 8 11 14 15 19 22 22 22
5 9 10 9 8 5 6 14 13 3 1 7 10 10 10 12 10 5 5 5 3 9 22 24 14 8 10 11 10 12 15 18 23 24 18 12 10 9 7 7 9 13 14 9 6 6 9 11 12 16 18 9 7 16 11 5 15 15 1 3 11 8 8 13 15 16 14 15 20 13 4 10 16 12 11 10 5 6 8 8 8 10 14 21 23 21 21
7 8 10 10 8 6 8 13 12 5 2 6 9 11 11 10 10 8 3 4 6 7 14 21 18 10 9 10 9 10 12 15 20 24 21 15 11 9 8 8 8 10 11 9 6 7 12 12 9 15 22 13 7 12 12 12 20 15 3 5 9 3 3 6 10 18 18 10 9 13 14 12 8 7 12 13 11 10 9 10 16 17 13 15 18 19 17
9 7 10 12 9 6 8 12 10 5 5 5 5 11 13 8 9 11 5 2 6 8 11 17 19 14 11 9 8 9 10 12 17 22 21 17 13 11 9 8 8 8 9 8 6 9 15 13 7 11 17 14 8 4 1 10 23 20 12 13 9 1 2 2 1 10 16 11 7 10 14 14 9 8 11 16 20 19 12 11 17 17 10 8 13 14 11
8 8 10 11 10 6 6 10 10 6 6 5 3 9 14 9 8 11 7 3 5 7 10 16 18 15 11 8 7 9 10 10 14 19 21 19 16 13 11 9 9 8 9 9 6 6 11 11 9 11 12 15 17 6 -6 6 22 15 6 12 15 10 10 10 8 10 14 14 11 8 8 10 11 13 16 16 16 16 16 15 13 11 14 16 11 6 6
7 9 11 11 10 7 5 8 10 8 7 3 1 7 13 10 8 10 8 4 5 6 7 12 17 17 13 9 8 9 10 10 11 14 19 22 20 16 13 10 9 8 10 10 8 6 7 6 6 9 8 9 15 13 4 6 11 6 4 12 14 9 5 6 8 9 8 11 14 12 9 9 12 14 17 17 15 10 6 9 10 12 20 23 12 2 3
9 8 11 12 9 5 5 7 10 9 7 4 1 6 13 12 9 10 9 4 3 6 6 8 13 17 14 10 10 11 10 10 10 12 17 22 22 19 14 12 11 9 8 11 10 7 7 6 4 6 9 9 11 13 11 9 9 11 12 9 6 6 3 2 7 10 6 7 13 16 16 15 15 17 18 19 20 13 4 7 12 11 14 20 17 9 4
11 7 8 10 8 5 4 7 11 8 6 6 3 4 12 14 10 9 10 5 2 5 7 8 10 14 14 13 13 11 10 10 12 13 15 18 21 20 15 12 12 10 7 9 11 9 9 8 7 5 6 7 9 10 13 15 14 12 11 7 7 12 10 7 10 10 5 4 8 11 15 15 15 19 20 16 15 14 12 16 17 10 7 13 16 13 9
9 7 6 6 6 5 3 8 13 8 2 5 6 4 10 14 12 10 10 6 4 5 7 7 8 11 15 16 13 10 10 13 14 12 12 15 20 23 20 14 12 11 9 8 8 10 10 9 9 8 6 5 7 7 9 13 12 10 9 8 7 9 10 10 9 4 -1 1 2 3 8 9 6 11 16 13 12 12 11 14 19 20 21 22 19 14 12
9 9 9 6 5 5 5 11 15 7 0 3 6 6 10 14 15 13 9 6 5 5 5 6 8 10 13 15 14 11 11 14 15 13 12 14 16 19 21 20 17 14 13 11 8 8 10 9 9 9 9 9 10 9 9 10 9 6 8 8 7 6 6 8 14 13 7 4 4 3 4 3 1 5 10 11 13 13 10 9 13 14 17 23 26 23 20
9 11 11 8 7 7 8 13 14 8 4 4 5 7 11 15 15 12 8 6 6 5 4 6 8 9 10 13 16 15 12 11 14 14 12 13 15 15 16 20 21 17 15 14 11 8 8 9 10 10 9 10 9 8 9 11 9 7 8 9 10 7 -0 -2 8 15 13 11 10 6 5 6 5 6 7 7 8 13 15 15 10 3 2 7 14 20 26
12 14 10 8 8 6 4 9 14 12 7 4 4 7 11 15 16 12 9 7 6 4 5 6 7 8 10 12 16 17 12 9 13 15 12 12 15 15 12 14 18 19 17 17 15 11 8 8 10 9 9 10 8 5 6 8 9 10 12 11 10 8 2 -2 -0 2 6 17 19 11 6 9 9 7 7 7 5 9 15 16 11 7 7 7 6 9 17
13 11 7 6 7 3 0 5 12 13 7 3 5 7 10 16 17 11 8 7 5 3 6 7 6 8 11 11 14 16 13 10 13 15 14 12 12 12 11 14 18 19 17 17 18 16 13 12 11 9 10 11 11 9 7 6 7 9 11 12 12 10 5 3 2 -3 -1 13 22 18 13 13 11 7 8 8 6 8 10 9 5 4 6 7 6 8 9
8 5 5 6 4 4 7 12 15 13 8 5 6 8 13 18 16 10 8 8 5 4 7 7 6 8 10 11 13 16 15 13 13 13 12 12 13 11 12 16 17 15 15 16 16 14 14 14 12 11 10 9 9 10 9 7 7 7 9 11 14 13 9 7 7 4 1 5 12 15 13 13 13 11 9 9 10 9 7 5 5 6 7 6 6 7 7
4 3 5 8 8 11 16 16 13 8 7 8 9 12 17 19 15 10 9 7 5 5 8 8 6 8 10 11 13 16 15 12 12 12 11 14 16 14 13 15 15 12 15 19 15 10 12 13 12 12 12 10 10 11 11 10 10 7 6 10 14 16 15 11 6 6 8 10 12 14 12 10 9 8 8 10 12 12 9 8 8 9 9 8 4 2 2
6 9 12 13 14 14 12 9 7 7 9 10 12 16 19 17 13 10 8 6 5 6 8 8 7 8 10 11 12 14 15 14 12 11 11 14 17 14 11 14 14 11 16 21 17 11 11 11 9 9 8 7 9 11 10 12 14 10 6 8 13 16 19 17 9 7 10 11 11 15 17 15 12 11 13 15 14 10 7 5 5 6 9 9 6 3 3
12 16 15 12 9 7 6 7 8 10 13 14 16 20 19 14 10 9 7 5 6 8 9 10 9 7 9 13 14 14 14 14 13 11 11 13 16 14 13 14 14 12 18 23 20 15 12 10 10 11 10 9 13 15 12 13 16 14 9 8 6 7 12 14 10 9 11 9 6 8 13 16 15 14 16 19 17 12 7 4 3 6 10 11 9 9 8
12 9 7 6 5 6 10 13 14 15 17 18 18 18 15 10 8 8 6 5 7 9 9 8 9 8 10 13 15 13 13 12 12 13 13 13 14 16 16 15 12 12 19 23 19 14 12 10 10 11 9 7 9 12 12 12 15 15 14 13 9 7 9 10 9 10 11 10 8 7 9 12 14 14 14 17 18 14 10 8 8 8 9 10 10 11 11
4 2 4 7 9 12 17 19 19 17 17 17 16 14 12 10 8 7 6 6 8 10 8 6 7 9 11 13 14 14 14 12 11 13 14 13 13 18 20 15 10 13 19 20 17 15 13 10 8 8 7 5 3 2 4 9 13 14 14 15 15 13 11 10 11 13 13 11 9 9 8 8 11 15 18 21 24 21 16 13 12 9 7 7 8 8 10
1 6 12 15 18 20 20 18 16 16 15 14 14 12 10 9 8 6 6 7 9 10 9 8 8 9 11 14 16 15 13 11 11 13 14 13 13 18 20 17 15 16 17 15 14 15 14 12 10 9 9 9 7 4 2 2 6 10 11 11 13 13 12 10 10 12 13 13 13 13 11 10 12 17 17 17 20 24 25 24 22 18 12 8 6 6 7
11 18 22 21 19 18 14 10 12 15 14 12 12 10 8 8 8 7 8 8 9 9 7 6 9 12 13 15 16 15 11 11 13 14 13 13 14 17 20 21 22 21 18 15 15 15 14 12 10 10 11 12 11 9 6 2 -1 1 5 8 9 10 12 12 10 7 8 11 13 13 13 12 13 16 16 13 13 16 20 23 26 26 22 17 13 12 12
23 22 18 14 11 10 9 10 13 15 13 11 11 10 9 8 8 8 8 8 8 8 7 6 10 16 17 15 14 13 11 11 13 13 13 15 16 18 20 23 23 20 18 19 20 17 14 13 11 9 11 14 13 12 11 10 6 4 3 2 4 7 10 12 13 12 12 12 9 8 10 10 8 8 8 8 9 12 13 14 16 19 21 22 21 19 19
15 11 9 9 9 12 14 15 15 14 12 10 10 9 8 9 9 9 9 9 7 7 9 11 14 16 15 12 12 12 10 11 13 14 14 15 18 20 22 24 24 20 17 17 18 16 15 16 14 10 7 7 8 9 9 9 10 10 5 -1 -0 4 7 8 8 12 16 17 14 12 12 12 10 6 4 3 4 6 8 8 8 11 14 16 18 18 18
7 9 13 15 15 16 17 15 13 12 11 10 9 8 8 8 8 8 7 8 8 10 12 13 14 15 14 11 11 12 11 11 13 15 15 17 20 21 20 20 19 17 15 15 15 14 13 12 12 13 16 15 12 10 8 7 9 14 13 8 5 9 13 13 12 11 13 15 17 16 15 15 14 12 10 9 8 8 7 4 3 6 9 11 11 12 13
14 17 19 18 17 17 14 11 10 12 11 9 9 9 9 9 9 7 6 7 10 13 14 14 14 14 13 10 11 11 11 12 15 16 17 18 19 19 20 20 17 13 15 19 19 16 13 9 4 3 10 17 18 13 8 4 5 11 16 14 8 6 8 12 13 9 4 4 8 11 10 11 14 14 12 11 11 11 12 10 7 7 9 10 10 10 10
18 18 18 15 13 12 10 9 11 12 10 9 8 8 8 8 7 6 8 11 14 14 14 14 14 13 11 11 12 13 12 14 17 17 17 20 21 20 22 24 20 12 11 16 18 15 12 11 8 3 1 7 14 16 13 9 7 7 9 10 10 9 7 7 7 5 1 3 10 14 12 10 11 12 12 13 13 10 9 9 9 9 9 9 9 9 8
17 15 12 10 9 9 9 11 12 10 9 10 10 8 7 6 6 7 11 15 16 15 13 12 12 12 11 11 13 13 12 14 17 18 18 20 20 18 19 21 19 13 9 13 19 18 10 6 9 12 11 8 8 10 12 13 13 12 9 8 9 11 10 9 9 7 2 2 8 14 15 13 12 11 12 14 15 13 10 8 9 10 12 12 11 11 10
12 9 7 9 11 11 10 10 11 10 9 9 9 7 6 6 7 10 14 15 14 13 13 12 12 12 12 11 13 15 14 15 18 22 21 18 15 15 16 13 9 7 8 12 19 21 14 4 4 11 13 11 10 11 11 11 13 14 14 12 11 10 10 12 14 14 9 4 3 6 11 14 15 16 15 11 8 8 9 10 10 10 11 12 13 13 12
8 10 11 11 11 11 11 12 11 10 8 6 5 6 9 10 11 13 15 15 13 12 12 12 11 11 12 13 14 15 16 17 19 21 20 16 14 15 14 8 1 2 8 14 18 19 13 6 6 11 11 7 7 12 15 14 13 13 14 15 14 12 10 11 13 15 13 7 1 1 9 16 18 17 16 13 10 8 10 12 13 14 14 13 14 14 14
11 12 12 11 11 12 13 12 10 7 5 6 7 9 11 12 13 13 13 13 12 12 11 11 12 13 14 15 15 14 15 18 20 19 17 15 12 11 12 10 7 4 5 9 16 21 16 6 5 12 15 10 8 12 16 16 15 13 13 15 16 14 12 12 13 15 14 8 0 -2 5 12 16 15 13 12 12 14 15 14 13 14 14 13 13 12 12
Height
5718 5714 5710 5706 5703 5699 5694 5689 5684 5679 5675 5670 5665 5660 5655 5652 5648 5645 5642 5640 5639 5637 5634 5631 5629 5626 5624 5621 5618 5614 5612 5610 5607 5604 5602 5600 5596 5593 5590 5588 5585 5581 5578 5575 5572 5570 5568 5566 5564 5563 5562 5560 5560 5560 5561 5563 5565 5570 5575 5580 5585 5589 5591 5595 5598 5602 5608 5614 5618 5621 5625 5628 5630 5634 5638 5642 5646 5651 5656 5660 5665 5669 5673 5676 5678 5682 5688
5718 5714 5710 5706 5702 5698 5694 5690 5685 5680 5675 5670 5665 5660 5655 5651 5648 5645 5641 5639 5638 5636 5634 5631 5629 5626 5623 5620 5618 5615 5612 5609 5607 5606 5603 5601 5598 5594 5591 5589 5587 5583 5579 5576 5572 5570 5568 5566 5564 5562 5560 5558 5557 5557 5559 5561 5565 5571 5576 5581 5586 5590 5593 5596 5598 5601 5606 5611 5614 5617 5620 5624 5627 5631 5635 5639 5644 5650 5655 5659 5664 5668 5671 5674 5677 5681 5686
5717 5713 5709 5705 5701 5697 5693 5689 5685 5680 5676 5671 5666 5661 5656 5652 5649 5646 5642 5639 5637 5635 5633 5631 5629 5626 5623 5621 5619 5616 5614 5611 5608 5607 5605 5602 5599 5596 5593 5591 5588 5584 5580 5577 5573 5570 5568 5566 5564 5561 5558 5556 5555 5555 5557 5561 5566 5573 5578 5583 5587 5591 5594 5596 5599 5602 5605 5609 5612 5615 5619 5622 5626 5629 5633 5637 5643 5648 5653 5657 5661 5665 5669 5672 5676 5681 5685
5716 5712 5709 5705 5701 5697 5693 5689 5685 5680 5676 5671 5666 5661 5656 5652 5649 5646 5644 5641 5637 5635 5633 5631 5629 5627 5624 5622 5619 5616 5614 5612 5610 5607 5605 5603 5601 5598 5595 5592 5589 5585 5581 5578 5575 5571 5569 5567 5565 5561 5559 5557 5555 5556 5559 5563 5569 5575 5580 5584 5588 5591 5593 5596 5599 5603 5607 5612 5615 5618 5621 5623 5625 5628 5631 5635 5640 5645 5651 5655 5658 5663 5667 5669 5672 5678 5682
5716 5712 5708 5704 5700 5697 5692 5688 5684 5680 5676 5671 5667 5662 5657 5652 5648 5645 5643 5640 5638 5635 5632 5630 5628 5626 5624 5622 5620 5617 5615 5613 5611 5608 5606 5603 5602 5599 5597 5594 5590 5587 5583 5580 5577 5574 5571 5569 5567 5563 5561 5559 5558 5560 5564 5568 5573 5578 5583 5586 5589 5592 5594 5596 5600 5603 5607 5612 5616 5618 5620 5622 5625 5629 5632 5635 5638 5643 5648 5652 5656 5660 5663 5666 5670 5675 5677
5715 5711 5707 5703 5700 5696 5692 5688 5684 5680 5676 5672 5667 5662 5657 5653 5648 5645 5642 5639 5637 5634 5631 5629 5627 5625 5624 5622 5620 5618 5616 5613 5610 5609 5607 5604 5602 5600 5597 5595 5592 5589 5585 5583 5580 5577 5575 5573 5570 5567 5565 5564 5564 5567 5571 5575 5578 5581 5585 5588 5591 5593 5596 5599 5602 5605 5607 5611 5614 5616 5619 5622 5625 5629 5632 5635 5638 5641 5644 5648 5653 5657 5660 5663 5668 5673 5674
5714 5711 5707 5703 5699 5695 5692 5688 5684 5680 5676 5672 5667 5662 5657 5652 5648 5645 5642 5640 5637 5634 5631 5629 5627 5625 5624 5622 5619 5617 5615 5613 5611 5609 5607 5605 5602 5600 5598 5596 5593 5590 5587 5585 5583 5580 5578 5576 5573 5571 5571 5571 5573 5577 5579 5581 5583 5586 5588 5591 5593 5596 5598 5601 5603 5606 5608 5610 5612 5615 5618 5621 5624 5627 5631 5633 5636 5639 5642 5647 5652 5656 5658 5662 5666 5670 5672
5714 5710 5706 5702 5699 5695 5691 5688 5683 5679 5675 5671 5668 5663 5658 5653 5648 5645 5642 5639 5637 5634 5632 5629 5627 5625 5624 5622 5619 5617 5615 5614 5612 5609 5607 5606 5604 5601 5599 5597 5595 5592 5590 5587 5585 5584 5582 5580 5578 5577 5578 5578 5581 5585 5587 5587 5588 5590 5592 5594 5596 5598 5600 5602 5604 5605 5607 5610 5612 5614 5617 5620 5622 5625 5628 5631 5634 5637 5641 5646 5651 5653 5656 5660 5662 5665 5667
5713 5709 5705 5702 5698 5694 5691 5687 5683 5679 5675 5671 5667 5663 5659 5654 5649 5646 5642 5639 5637 5634 5631 5629 5627 5625 5623 5622 5620 5618 5616 5614 5613 5610 5608 5606 5604 5602 5600 5598 5596 5594 5592 5590 5588 5587 5586 5585 5583 5582 5582 5582 5585 5588 5591 5592 5593 5594 5595 5597 5598 5599 5600 5602 5605 5607 5608 5610 5611 5613 5616 5619 5621 5623 5625 5628 5632 5635 5639 5644 5647 5650 5654 5657 5659 5660 5664
5712 5709 5705 5701 5698 5694 5690 5687 5683 5679 5675 5671 5667 5663 5658 5654 5650 5646 5643 5640 5637 5635 5632 5629 5627 5625 5623 5621 5620 5618 5616 5614 5613 5611 5609 5607 5605 5603 5601 5599 5597 5595 5593 5591 5589 5588 5588 5588 5588 5587 5586 5586 5587 5590 5592 5594 5596 5597 5598 5599 5600 5601 5602 5604 5605 5607 5609 5610 5611 5613 5614 5617 5619 5622 5624 5627 5630 5634 5638 5641 5644 5647 5650 5653 5655 5659 5663
5711 5708 5704 5700 5697 5694 5690 5686 5683 5679 5675 5671 5667 5663 5659 5654 5650 5646 5642 5639 5636 5634 5632 5629 5627 5624 5622 5621 5620 5619 5617 5614 5612 5611 5610 5608 5606 5603 5602 5600 5598 5596 5594 5592 5590 5590 5590 5590 5590 5590 5590 5590 5591 5592 5593 5595 5598 5599 5599 5601 5602 5602 5603 5604 5605 5606 5608 5609 5611 5612 5613 5614 5618 5622 5624 5626 5629 5632 5635 5639 5642 5646 5649 5651 5654 5657 5661
5710 5707 5703 5699 5696 5693 5690 5686 5682 5678 5675 5671 5668 5664 5659 5655 5651 5647 5643 5640 5636 5633 5631 5629 5627 5624 5622 5621 5619 5618 5617 5615 5613 5610 5609 5608 5606 5603 5602 5600 5599 5597 5595 5593 5592 5591 5591 5591 5592 5592 5592 5593 5594 5594 5595 5597 5599 5600 5601 5602 5602 5604 5604 5604 5605 5607 5608 5609 5610 5611 5612 5614 5617 5620 5622 5624 5627 5631 5634 5637 5641 5644 5648 5650 5652 5654 5656
5709 5706 5702 5699 5695 5692 5689 5686 5682 5678 5674 5671 5668 5664 5660 5655 5651 5647 5644 5640 5637 5634 5631 5628 5626 5624 5622 5620 5619 5618 5616 5615 5613 5611 5609 5607 5605 5603 5602 5601 5600 5598 5596 5594 5593 5592 5592 5592 5593 5592 5593 5594 5595 5595 5596 5598 5600 5601 5602 5603 5603 5604 5605 5605 5606 5607 5607 5608 5610 5610 5612 5614 5615 5617 5620 5622 5626 5630 5632 5635 5637 5640 5644 5647 5650 5652 5653
5708 5705 5701 5698 5694 5691 5688 5685 5681 5678 5674 5671 5667 5664 5660 5656 5651 5648 5644 5640 5637 5634 5631 5628 5626 5624 5622 5620 5619 5617 5616 5615 5613 5611 5610 5608 5606 5604 5602 5601 5600 5598 5597 5596 5594 5594 5593 5593 5593 5593 5594 5594 5595 5596 5597 5599 5601 5602 5603 5604 5604 5604 5605 5606 5606 5607 5607 5608 5609 5610 5611 5612 5613 5616 5618 5621 5625 5628 5630 5632 5634 5638 5641 5644 5648 5650 5652
5707 5703 5700 5697 5694 5690 5687 5684 5681 5677 5674 5670 5667 5663 5660 5656 5652 5648 5645 5641 5637 5634 5631 5629 5626 5624 5621 5619 5618 5617 5616 5615 5613 5612 5610 5609 5606 5604 5602 5601 5600 5599 5598 5598 5596 5596 5595 5594 5594 5594 5595 5596 5596 5597 5598 5600 5601 5602 5604 5604 5605 5605 5605 5606 5606 5606 5607 5608 5608 5609 5610 5610 5612 5614 5617 5619 5622 5625 5627 5629 5632 5635 5638 5642 5645 5648 5651
5705 5702 5699 5695 5692 5689 5686 5684 5680 5677 5673 5670 5666 5663 5659 5656 5652 5648 5644 5641 5638 5634 5631 5628 5626 5624 5621 5619 5617 5616 5615 5614 5613 5612 5611 5609 5607 5605 5603 5602 5601 5600 5599 5599 5598 5597 5597 5596 5596 5595 5596 5598 5598 5598 5600 5601 5602 5602 5603 5604 5605 5605 5605 5605 5605 5606 5607 5607 5607 5608 5609 5609 5611 5613 5615 5617 5619 5622 5625 5628 5630 5633 5636 5639 5643 5646 5649
5703 5700 5697 5694 5691 5688 5685 5683 5680 5676 5672 5669 5666 5663 5659 5655 5651 5648 5644 5641 5638 5634 5631 5628 5625 5623 5621 5619 5616 5615 5614 5614 5613 5612 5611 5610 5608 5606 5604 5602 5601 5600 5600 5599 5598 5598 5598 5598 5598 5597 5597 5599 5600 5600 5601 5602 5603 5603 5604 5604 5605 5605 5605 5606 5606 5607 5607 5607 5607 5607 5608 5609 5610 5612 5614 5616 5618 5620 5623 5625 5628 5631 5634 5637 5640 5643 5646
5701 5699 5695 5692 5689 5687 5684 5681 5679 5675 5672 5668 5665 5662 5659 5655 5651 5647 5644 5641 5638 5635 5631 5628 5625 5623 5621 5619 5616 5615 5613 5613 5612 5611 5610 5609 5608 5606 5604 5603 5601 5600 5600 5600 5599 5599 5599 5599 5599 5598 5598 5598 5600 5601 5601 5602 5603 5604 5605 5605 5605 5605 5606 5606 5607 5607 5608 5607 5607 5607 5608 5609 5611 5612 5614 5615 5617 5618 5620 5623 5626 5628 5631 5634 5637 5640 5643
5699 5697 5694 5690 5688 5685 5683 5680 5677 5674 5671 5668 5664 5661 5658 5655 5650 5647 5644 5641 5638 5635 5632 5628 5625 5623 5621 5619 5616 5614 5613 5612 5612 5611 5610 5609 5608 5607 5605 5603 5602 5601 5600 5600 5600 5600 5599 5599 5599 5599 5599 5598 5599 5599 5601 5602 5604 5605 5606 5606 5606 5606 5607 5607 5607 5608 5608 5607 5607 5608 5609 5610 5611 5612 5613 5614 5615 5617 5619 5622 5625 5627 5630 5633 5635 5637 5639
5697 5694 5692 5689 5686 5683 5681 5678 5676 5673 5670 5667 5663 5660 5658 5654 5650 5647 5643 5640 5638 5635 5632 5629 5625 5622 5620 5618 5616 5614 5612 5611 5611 5610 5610 5609 5608 5607 5605 5604 5603 5602 5601 5601 5600 5600 5600 5599 5599 5600 5600 5600 5600 5600 5600 5601 5603 5604 5605 5606 5606 5607 5607 5608 5608 5609 5608 5608 5608 5609 5609 5609 5610 5611 5612 5612 5614 5616 5619 5622 5624 5626 5629 5631 5633 5635 5637
5694 5692 5689 5687 5684 5682 5679 5677 5674 5672 5669 5666 5662 5660 5657 5654 5650 5646 5643 5640 5637 5634 5631 5628 5625 5622 5620 5618 5616 5614 5612 5611 5610 5609 5609 5608 5608 5607 5606 5605 5604 5603 5602 5601 5601 5601 5600 5600 5600 5600 5600 5600 5601 5601 5601 5601 5602 5603 5604 5605 5607 5607 5608 5609 5609 5609 5609 5608 5608 5609 5609 5609 5610 5611 5611 5613 5615 5617 5619 5622 5624 5626 5628 5630 5632 5634 5636
5691 5689 5687 5684 5682 5680 5677 5675 5672 5670 5667 5664 5661 5658 5656 5653 5650 5646 5643 5640 5637 5634 5631 5628 5625 5622 5620 5617 5616 5614 5612 5611 5609 5609 5608 5607 5607 5607 5606 5605 5604 5603 5602 5602 5601 5601 5601 5601 5600 5600 5600 5600 5601 5601 5602 5602 5602 5602 5603 5604 5606 5607 5608 5608 5608 5608 5609 5608 5609 5610 5610 5610 5611 5612 5612 5614 5615 5616 5617 5619 5622 5625 5627 5629 5630 5632 5635
5688 5686 5684 5682 5679 5677 5675 5673 5670 5668 5666 5663 5660 5657 5654 5651 5648 5645 5642 5639 5636 5633 5631 5628 5625 5622 5620 5617 5615 5614 5612 5611 5609 5608 5607 5607 5606 5606 5605 5605 5604 5603 5603 5602 5602 5602 5601 5601 5601 5600 5600 5600 5601 5601 5602 5602 5602 5603 5603 5605 5606 5607 5607 5608 5608 5608 5608 5608 5609 5610 5610 5611 5612 5613 5614 5614 5615 5615 5615 5616 5618 5621 5625 5627 5629 5631 5633
5685 5683 5681 5679 5677 5675 5672 5670 5668 5666 5663 5661 5658 5655 5653 5650 5647 5644 5641 5638 5635 5632 5630 5628 5625 5622 5619 5617 5615 5613 5612 5611 5609 5607 5607 5606 5605 5605 5605 5604 5604 5603 5603 5602 5602 5601 5601 5601 5601 5601 5600 5601 5601 5601 5602 5602 5602 5602 5603 5604 5605 5606 5606 5606 5606 5607 5607 5608 5609 5610 5610 5611 5611 5612 5614 5614 5615 5615 5616 5616 5617 5619 5621 5624 5626 5629 5632
5682 5680 5678 5676 5674 5672 5670 5668 5666 5663 5661 5659 5656 5654 5651 5648 5646 5643 5640 5637 5634 5631 5629 5627 5625 5622 5619 5616 5614 5612 5611 5610 5609 5607 5606 5605 5605 5604 5604 5603 5603 5603 5602 5602 5602 5601 5601 5601 5600 5600 5600 5600 5601 5601 5601 5602 5602 5602 5602 5603 5604 5604 5605 5605 5606 5606 5606 5607 5608 5609 5609 5610 5610 5611 5612 5613 5614 5615 5617 5617 5618 5618 5617 5619 5623 5627 5630
5679 5677 5675 5673 5672 5669 5667 5665 5663 5661 5659 5656 5654 5652 5649 5646 5644 5641 5639 5636 5633 5630 5627 5625 5623 5621 5618 5616 5614 5612 5610 5609 5608 5607 5605 5604 5603 5603 5603 5602 5602 5602 5602 5602 5601 5601 5600 5600 5600 5600 5599 5600 5600 5600 5600 5601 5601 5601 5602 5602 5603 5604 5605 5605 5605 5605 5605 5605 5606 5607 5607 5608 5609 5610 5610 5610 5612 5614 5615 5616 5618 5618 5616 5616 5619 5622 5626
5675 5673 5672 5670 5668 5666 5664 5662 5660 5658 5656 5654 5652 5649 5647 5644 5641 5639 5637 5634 5632 5629 5626 5624 5622 5620 5617 5615 5613 5611 5609 5607 5606 5605 5604 5603 5602 5602 5601 5601 5601 5601 5601 5601 5600 5600 5600 5600 5600 5599 5599 5599 5599 5599 5599 5600 5600 5600 5601 5602 5602 5604 5604 5604 5603 5604 5604 5605 5605 5605 5606 5607 5608 5609 5609 5609 5609 5612 5613 5613 5615 5618 5618 5618 5618 5619 5622
5672 5670 5668 5667 5665 5663 5661 5659 5657 5655 5653 5651 5649 5647 5645 5642 5639 5637 5635 5632 5630 5627 5625 5622 5620 5618 5616 5614 5612 5610 5608 5606 5604 5604 5603 5602 5601 5600 5600 5600 5599 5599 5599 5599 5599 5599 5599 5599 5599 5599 5599 5599 5599 5599 5599 5600 5600 5600 5601 5602 5602 5603 5604 5603 5603 5603 5603 5605 5606 5605 5605 5606 5607 5607 5607 5608 5608 5610 5612 5611 5612 5615 5618 5620 5620 5620 5621
5668 5666 5665 5663 5661 5660 5658 5656 5655 5653 5651 5649 5646 5644 5642 5640 5636 5634 5632 5630 5628 5626 5623 5620 5618 5616 5614 5612 5610 5608 5606 5604 5603 5602 5601 5600 5599 5598 5598 5598 5598 5597 5597 5598 5598 5598 5598 5598 5598 5598 5598 5598 5598 5598 5599 5599 5599 5600 5601 5602 5601 5602 5602 5602 5602 5602 5603 5604 5604 5604 5604 5605 5606 5606 5606 5607 5608 5610 5611 5611 5611 5613 5617 5619 5621 5622 5623
5664 5662 5661 5659 5658 5656 5655 5653 5651 5649 5648 5646 5643 5641 5639 5637 5634 5631 5630 5628 5625 5623 5621 5618 5616 5614 5612 5610 5609 5606 5605 5603 5601 5599 5599 5598 5597 5596 5596 5595 5595 5595 5595 5595 5596 5596 5596 5596 5597 5597 5597 5597 5597 5597 5598 5598 5599 5599 5600 5601 5601 5601 5601 5601 5601 5603 5603 5603 5603 5603 5604 5605 5606 5607 5607 5607 5608 5609 5610 5611 5612 5613 5615 5618 5620 5621 5623
5659 5658 5657 5656 5654 5653 5651 5649 5648 5646 5644 5642 5640 5638 5636 5634 5631 5629 5627 5625 5623 5621 5618 5616 5613 5611 5610 5608 5607 5605 5602 5601 5599 5597 5596 5596 5595 5594 5594 5593 5592 5593 5593 5593 5594 5594 5594 5595 5595 5595 5595 5596 5596 5596 5596 5597 5598 5598 5599 5599 5600 5600 5599 5599 5600 5602 5603 5603 5602 5603 5604 5604 5605 5606 5607 5607 5607 5607 5608 5610 5611 5612 5613 5615 5618 5619 5621
5655 5654 5653 5652 5650 5649 5647 5645 5644 5643 5641 5639 5637 5634 5632 5630 5628 5626 5624 5622 5620 5618 5615 5613 5611 5609 5607 5606 5604 5602 5600 5599 5597 5596 5594 5593 5592 5592 5591 5591 5590 5590 5591 5591 5592 5592 5592 5593 5593 5593 5593 5594 5594 5594 5595 5595 5596 5597 5597 5597 5598 5599 5598 5598 5598 5600 5602 5603 5602 5602 5603 5604 5604 5605 5605 5606 5606 5607 5607 5608 5610 5611 5612 5614 5615 5617 5618
5652 5651 5649 5648 5646 5645 5643 5642 5640 5639 5637 5635 5633 5631 5629 5627 5625 5622 5621 5619 5616 5615 5613 5611 5608 5606 5604 5603 5602 5600 5598 5596 5595 5594 5592 5591 5590 5589 5588 5588 5588 5587 5588 5589 5589 5590 5590 5590 5591 5591 5591 5591 5591 5592 5593 5593 5594 5594 5595 5595 5596 5597 5597 5596 5596 5597 5599 5601 5601 5601 5601 5602 5603 5604 5604 5605 5605 5606 5606 5607 5608 5609 5611 5612 5613 5614 5616
5647 5646 5645 5644 5642 5641 5639 5638 5636 5634 5633 5632 5629 5627 5625 5623 5621 5619 5617 5615 5614 5612 5610 5608 5606 5604 5602 5600 5599 5598 5596 5594 5593 5592 5590 5588 5587 5586 5586 5586 5586 5585 5585 5586 5586 5587 5588 5588 5588 5589 5589 5588 5589 5590 5591 5591 5591 5592 5592 5593 5593 5594 5594 5594 5593 5593 5595 5598 5600 5600 5599 5599 5601 5602 5603 5604 5604 5605 5605 5605 5606 5607 5609 5610 5612 5613 5614
5643 5642 5641 5639 5638 5636 5635 5634 5632 5630 5629 5628 5626 5623 5621 5619 5617 5616 5614 5612 5610 5608 5606 5604 5603 5601 5599 5597 5595 5594 5593 5591 5590 5589 5587 5586 5585 5584 5583 5583 5583 5583 5583 5583 5583 5584 5585 5585 5585 5586 5586 5586 5587 5588 5588 5589 5589 5589 5590 5590 5590 5591 5591 5591 5591 5591 5592 5595 5597 5598 5597 5597 5598 5599 5600 5601 5602 5603 5603 5604 5604 5605 5607 5608 5610 5612 5613
5639 5637 5636 5635 5633 5632 5631 5629 5627 5625 5624 5623 5621 5619 5617 5616 5614 5612 5611 5609 5607 5605 5603 5601 5599 5598 5596 5594 5592 5591 5590 5588 5587 5586 5585 5583 5583 5581 5580 5580 5580 5580 5580 5581 5581 5582 5582 5582 5582 5583 5584 5585 5585 5585 5586 5586 5586 5587 5587 5588 5588 5588 5588 5589 5590 5589 5589 5591 5594 5595 5595 5595 5595 5596 5598 5598 5599 5600 5601 5602 5602 5603 5604 5606 5607 5609 5611
5634 5632 5631 5630 5629 5627 5626 5624 5622 5620 5619 5618 5616 5614 5613 5611 5610 5608 5607 5605 5604 5602 5600 5598 5596 5594 5593 5591 5589 5588 5587 5585 5584 5583 5582 5581 5580 5579 5578 5578 5577 5576 5577 5578 5579 5579 5579 5580 5580 5580 5581 5583 5583 5583 5583 5583 5583 5584 5585 5585 5586 5586 5586 5586 5588 5587 5587 5588 5590 5592 5593 5593 5593 5593 5594 5595 5596 5597 5598 5599 5600 5601 5602 5603 5604 5605 5607
5629 5627 5626 5625 5623 5622 5621 5619 5617 5616 5614 5613 5611 5610 5608 5606 5605 5604 5603 5601 5599 5598 5596 5594 5592 5591 5589 5587 5586 5585 5584 5582 5581 5580 5578 5578 5578 5576 5575 5575 5574 5573 5574 5576 5576 5576 5577 5577 5577 5578 5579 5580 5580 5580 5581 5581 5581 5581 5582 5583 5583 5583 5583 5584 5585 5585 5584 5585 5586 5587 5588 5589 5590 5591 5591 5592 5592 5593 5594 5596 5597 5597 5598 5599 5601 5602 5603
5624 5623 5621 5620 5619 5618 5617 5614 5612 5611 5610 5608 5606 5605 5604 5602 5601 5600 5599 5597 5595 5593 5592 5590 5588 5587 5586 5584 5582 5581 5580 5579 5578 5576 5575 5575 5574 5573 5572 5572 5570 5570 5571 5573 5573 5573 5573 5573 5574 5575 5577 5577 5576 5577 5578 5578 5578 5579 5579 5580 5580 5580 5581 5581 5582 5582 5581 5582 5582 5582 5583 5585 5586 5588 5588 5589 5589 5590 5591 5592 5593 5594 5595 5596 5597 5598 5599
5619 5618 5617 5615 5614 5613 5612 5609 5607 5606 5604 5603 5602 5601 5599 5598 5597 5596 5594 5593 5591 5590 5588 5586 5585 5583 5582 5580 5579 5577 5576 5575 5575 5574 5572 5571 5570 5569 5569 5568 5567 5567 5569 5570 5570 5569 5569 5570 5571 5572 5573 5574 5573 5574 5575 5575 5575 5576 5576 5577 5577 5577 5578 5579 5579 5578 5579 5579 5579 5579 5580 5581 5582 5583 5585 5586 5587 5587 5588 5588 5589 5591 5592 5593 5594 5595 5596
5615 5613 5612 5610 5608 5607 5606 5604 5602 5601 5600 5598 5597 5596 5595 5594 5592 5591 5590 5589 5587 5586 5584 5583 5581 5579 5578 5576 5575 5574 5572 5571 5570 5570 5569 5567 5566 5566 5566 5565 5563 5564 5566 5567 5566 5565 5566 5567 5568 5568 5568 5569 5570 5571 5571 5572 5572 5573 5573 5574 5574 5575 5576 5576 5576 5576 5576 5576 5576 5577 5578 5578 5578 5579 5580 5581 5582 5583 5583 5584 5586 5587 5588 5589 5590 5591 5592
5609 5608 5606 5605 5603 5602 5600 5599 5598 5597 5595 5594 5593 5592 5591 5589 5588 5587 5586 5584 5583 5581 5579 5578 5577 5576 5573 5572 5571 5570 5568 5567 5566 5566 5565 5564 5562 5562 5562 5561 5560 5561 5562 5563 5562 5561 5563 5564 5564 5563 5564 5566 5567 5568 5568 5569 5569 5570 5570 5571 5572 5572 5573 5573 5574 5574 5574 5574 5574 5574 5575 5575 5576 5576 5577 5578 5578 5578 5579 5580 5581 5582 5584 5585 5586 5588 5589
5604 5603 5601 5599 5598 5597 5596 5594 5594 5592 5591 5589 5588 5587 5586 5585 5584 5582 5581 5580 5579 5577 5575 5574 5573 5571 5569 5567 5567 5566 5565 5563 5562 5562 5561 5559 5558 5558 5557 5557 5557 5557 5557 5558 5558 5558 5560 5560 5560 5560 5561 5563 5564 5564 5564 5565 5566 5566 5567 5568 5569 5569 5570 5571 5571 5571 5571 5571 5571 5571 5571 5572 5573 5573 5574 5575 5575 5575 5576 5576 5577 5578 5579 5580 5582 5583 5584
5599 5598 5596 5594 5594 5593 5591 5590 5589 5588 5586 5585 5584 5583 5581 5580 5579 5578 5577 5576 5575 5573 5570 5569 5568 5567 5565 5563 5562 5562 5560 5559 5558 5557 5556 5555 5555 5554 5553 5553 5553 5553 5553 5554 5555 5556 5556 5556 5556 5556 5558 5559 5559 5559 5560 5561 5562 5562 5564 5565 5566 5566 5567 5568 5568 5568 5568 5568 5568 5568 5569 5569 5570 5570 5571 5572 5572 5572 5573 5573 5574 5575 5575 5576 5577 5579 5580
5594 5593 5592 5590 5589 5588 5587 5585 5585 5584 5582 5581 5580 5579 5577 5576 5574 5573 5572 5571 5570 5568 5566 5564 5563 5562 5561 5559 5558 5557 5556 5555 5554 5553 5552 5551 5551 5550 5549 5549 5549 5550 5550 5550 5552 5552 5552 5552 5553 5554 5554 5554 5554 5555 5556 5556 5558 5559 5560 5562 5562 5563 5564 5564 5565 5565 5565 5565 5565 5566 5566 5566 5567 5567 5568 5568 5569 5569 5570 5570 5571 5572 5572 5573 5574 5575 5576
5589 5588 5587 5585 5584 5583 5582 5581 5580 5579 5578 5577 5576 5574 5573 5572 5570 5568 5567 5566 5565 5564 5562 5560 5559 5558 5557 5555 5554 5553 5552 5551 5550 5549 5548 5547 5547 5546 5546 5546 5546 5546 5547 5547 5548 5548 5549 5549 5550 5550 5550 5550 5550 5551 5551 5552 5553 5554 5556 5558 5559 5559 5560 5560 5561 5561 5562 5562 5562 5562 5563 5563 5563 5564 5564 5565 5565 5566 5567 5567 5568 5569 5569 5570 5571 5572 5573
5584 5583 5582 5581 5579 5579 5578 5576 5575 5575 5573 5572 5571 5570 5568 5567 5566 5564 5563 5562 5561 5559 5557 5555 5555 5554 5552 5551 5550 5549 5547 5546 5546 5545 5544 5543 5543 5543 5542 5542 5542 5543 5543 5544 5544 5544 5544 5545 5545 5546 5545 5545 5546 5547 5547 5548 5549 5550 5552 5554 5555 5556 5556 5557 5557 5558 5559 5559 5559 5559 5559 5560 5560 5560 5561 5561 5562 5562 5563 5564 5565 5566 5567 5568 5569 5569 5570
5579 5579 5578 5576 5575 5574 5573 5572 5571 5570 5569 5567 5566 5565 5564 5563 5561 5560 5558 5557 5556 5554 5552 5551 5550 5549 5548 5547 5546 5545 5543 5542 5542 5541 5540 5539 5539 5539 5539 5539 5539 5540 5540 5540 5540 5540 5540 5540 5541 5542 5541 5541 5542 5542 5543 5545 5546 5547 5548 5550 5551 5552 5553 5553 5553 5554 5555 5556 5556 5556 5556 5556 5557 5557 5558 5558 5558 5559 5560 5560 5561 5562 5563 5564 5565 5566 5567
5575 5574 5573 5572 5571 5570 5569 5568 5567 5566 5564 5563 5561 5561 5560 5559 5557 5555 5554 5553 5551 5549 5548 5547 5546 5545 5544 5543 5542 5541 5539 5538 5537 5537 5536 5535 5536 5536 5536 5536 5537 5537 5537 5536 5536 5536 5536 5536 5537 5537 5537 5537 5538 5539 5539 5541 5542 5543 5544 5545 5547 5548 5548 5549 5549 5551 5552 5553 5553 5552 5552 5553 5553 5554 5554 5555 5555 5555 5556 5556 5557 5558 5559 5560 5561 5563 5564
5571 5570 5569 5568 5567 5566 5565 5564 5563 5561 5560 5558 5557 5556 5555 5554 5552 5550 5550 5549 5547 5545 5543 5542 5541 5540 5540 5538 5537 5536 5535 5533 5533 5533 5533 5532 5532 5532 5533 5533 5533 5533 5533 5532 5531 5531 5532 5533 5533 5533 5533 5533 5534 5535 5535 5537 5538 5539 5540 5541 5543 5544 5544 5545 5546 5547 5549 5550 5549 5549 5549 5549 5549 5550 5550 5551 5551 5551 5552 5553 5553 5554 5555 5556 5557 5558 5559
5566 5565 5565 5564 5563 5561 5560 5559 5558 5557 5556 5554 5552 5551 5550 5548 5546 5545 5545 5544 5542 5540 5539 5538 5536 5536 5535 5533 5532 5531 5530 5530 5529 5529 5529 5528 5528 5528 5528 5528 5528 5527 5527 5527 5527 5527 5528 5529 5529 5529 5529 5530 5531 5531 5532 5533 5534 5535 5536 5537 5538 5539 5540 5541 5542 5543 5545 5546 5546 5546 5546 5546 5545 5546 5546 5547 5547 5548 5549 5549 5549 5550 5550 5551 5553 5554 5554
5562 5561 5560 5560 5559 5557 5556 5555 5554 5553 5551 5550 5548 5546 5545 5543 5542 5540 5540 5539 5537 5536 5534 5533 5532 5531 5530 5529 5527 5527 5526 5525 5525 5525 5525 5524 5524 5523 5523 5523 5522 5521 5522 5522 5523 5523 5523 5524 5525 5525 5526 5526 5527 5527 5528 5529 5530 5531 5532 5533 5534 5535 5536 5536 5537 5538 5540 5541 5542 5543 5543 5542 5541 5541 5542 5543 5544 5544 5545 5545 5545 5546 5546 5547 5548 5549 5550